Time,TemperatureF,DewpointF,PressureIn,WindDirection,WindDirectionDegrees,WindSpeedMPH,WindSpeedGustMPH,Humidity,HourlyPrecipIn,Conditions,Clouds,dailyrainin,SoftwareType,DateUTC
2013-02-21 00:00:00,26.1,13.8,29.78,WNW,291,6.0,7.0,59,0.00,,---,0.00,VWS V14.01,2013-02-21 05:00:00,
2013-02-21 00:05:00,26.0,14.0,29.78,WNW,301,4.0,7.0,60,0.00,,---,0.00,VWS V14.01,2013-02-21 05:05:00,
2013-02-21 00:10:00,26.0,14.0,29.78,WSW,246,3.0,12.0,60,0.00,,---,0.00,VWS V14.01,2013-02-21 05:10:00,
2013-02-21 00:15:00,26.1,13.8,29.78,NW,319,2.0,12.0,59,0.00,,---,0.00,VWS V14.01,2013-02-21 05:15:00,
2013-02-21 00:20:00,26.1,14.1,29.78,SW,234,3.0,8.0,60,0.00,,---,0.00,VWS V14.01,2013-02-21 05:20:00,
2013-02-21 00:25:00,26.1,14.1,29.78,WSW,250,4.0,8.0,60,0.00,,---,0.00,VWS V14.01,2013-02-21 05:25:00,
2013-02-21 00:30:00,26.0,14.0,29.78,West,263,3.0,4.0,60,0.00,,---,0.00,VWS V14.01,2013-02-21 05:30:00,
2013-02-21 00:35:00,26.0,14.0,29.78,West,281,7.0,9.0,60,0.00,,---,0.00,VWS V14.01,2013-02-21 05:35:00,
2013-02-21 00:40:00,26.0,14.4,29.78,WSW,248,3.0,16.0,61,0.00,,---,0.00,VWS V14.01,2013-02-21 05:40:00,
2013-02-21 00:45:00,26.0,14.4,29.78,West,277,5.0,7.0,61,0.00,,---,0.00,VWS V14.01,2013-02-21 05:45:00,
2013-02-21 00:50:00,25.8,14.2,29.79,West,274,6.0,11.0,61,0.00,,---,0.00,VWS V14.01,2013-02-21 05:50:00,
2013-02-21 00:55:00,25.8,13.9,29.79,West,268,5.0,10.0,60,0.00,,---,0.00,VWS V14.01,2013-02-21 05:55:00,
2013-02-21 01:00:00,25.8,14.2,29.79,WSW,243,3.0,8.0,61,0.00,,---,0.00,VWS V14.01,2013-02-21 06:00:00,
2013-02-21 01:05:00,25.8,14.2,29.80,WSW,243,4.0,12.0,61,0.00,,---,0.00,VWS V14.01,2013-02-21 06:05:00,
2013-02-21 01:10:00,25.8,14.6,29.80,West,275,5.0,8.0,62,0.00,,---,0.00,VWS V14.01,2013-02-21 06:10:00,
2013-02-21 01:15:00,25.8,14.6,29.80,WSW,257,5.0,7.0,62,0.00,,---,0.00,VWS V14.01,2013-02-21 06:15:00,
2013-02-21 01:20:00,26.0,14.8,29.80,WSW,257,3.0,6.0,62,0.00,,---,0.00,VWS V14.01,2013-02-21 06:20:00,
2013-02-21 01:25:00,26.0,14.8,29.80,West,270,5.0,8.0,62,0.00,,---,0.00,VWS V14.01,2013-02-21 06:25:00,
2013-02-21 01:30:00,26.1,14.9,29.80,WSW,251,5.0,9.0,62,0.00,,---,0.00,VWS V14.01,2013-02-21 06:30:00,
2013-02-21 01:35:00,26.1,14.9,29.80,WSW,241,7.0,10.0,62,0.00,,---,0.00,VWS V14.01,2013-02-21 06:35:00,
2013-02-21 01:40:00,26.3,15.4,29.80,WSW,257,2.0,8.0,63,0.00,,---,0.00,VWS V14.01,2013-02-21 06:40:00,
2013-02-21 01:45:00,26.3,15.1,29.80,WSW,250,3.0,7.0,62,0.00,,---,0.00,VWS V14.01,2013-02-21 06:45:00,
2013-02-21 01:50:00,26.4,15.5,29.80,West,261,3.0,8.0,63,0.00,,---,0.00,VWS V14.01,2013-02-21 06:50:00,
2013-02-21 01:55:00,26.4,15.5,29.80,West,265,11.0,11.0,63,0.00,,---,0.00,VWS V14.01,2013-02-21 06:55:00,
2013-02-21 02:00:00,26.6,15.4,29.80,West,274,3.0,6.0,62,0.00,,---,0.00,VWS V14.01,2013-02-21 07:00:00,
2013-02-21 02:05:00,26.6,15.7,29.79,West,275,5.0,12.0,63,0.00,,---,0.00,VWS V14.01,2013-02-21 07:05:00,
2013-02-21 02:10:00,26.6,15.7,29.79,WSW,246,5.0,5.0,63,0.00,,---,0.00,VWS V14.01,2013-02-21 07:10:00,
2013-02-21 02:15:00,26.6,15.7,29.79,West,280,3.0,10.0,63,0.00,,---,0.00,VWS V14.01,2013-02-21 07:15:00,
2013-02-21 02:20:00,26.6,15.7,29.79,West,278,2.0,7.0,63,0.00,,---,0.00,VWS V14.01,2013-02-21 07:20:00,
2013-02-21 02:25:00,26.6,15.7,29.79,West,271,5.0,11.0,63,0.00,,---,0.00,VWS V14.01,2013-02-21 07:25:00,
2013-02-21 02:30:00,26.6,15.7,29.79,West,278,5.0,8.0,63,0.00,,---,0.00,VWS V14.01,2013-02-21 07:30:00,
2013-02-21 02:35:00,26.6,15.7,29.79,WNW,287,5.0,16.0,63,0.00,,---,0.00,VWS V14.01,2013-02-21 07:35:00,
2013-02-21 02:40:00,26.6,15.7,29.79,WSW,253,3.0,11.0,63,0.00,,---,0.00,VWS V14.01,2013-02-21 07:40:00,
2013-02-21 02:45:00,26.6,15.7,29.79,West,261,3.0,11.0,63,0.00,,---,0.00,VWS V14.01,2013-02-21 07:45:00,
2013-02-21 02:50:00,26.6,16.1,29.79,WSW,253,6.0,7.0,64,0.00,,---,0.00,VWS V14.01,2013-02-21 07:50:00,
2013-02-21 02:55:00,26.6,16.1,29.79,WSW,251,0.0,6.0,64,0.00,,---,0.00,VWS V14.01,2013-02-21 07:55:00,
2013-02-21 03:00:00,26.6,16.1,29.79,WSW,254,7.0,10.0,64,0.00,,---,0.00,VWS V14.01,2013-02-21 08:00:00,
2013-02-21 03:05:00,26.6,16.1,29.79,West,261,3.0,13.0,64,0.00,,---,0.00,VWS V14.01,2013-02-21 08:05:00,
2013-02-21 03:10:00,26.6,16.1,29.79,WSW,246,4.0,14.0,64,0.00,,---,0.00,VWS V14.01,2013-02-21 08:10:00,
2013-02-21 03:15:00,26.6,16.1,29.79,WSW,237,3.0,12.0,64,0.00,,---,0.00,VWS V14.01,2013-02-21 08:15:00,
2013-02-21 03:20:00,26.6,16.1,29.79,WSW,241,10.0,12.0,64,0.00,,---,0.00,VWS V14.01,2013-02-21 08:20:00,
2013-02-21 03:25:00,26.4,15.9,29.79,SW,223,5.0,12.0,64,0.00,,---,0.00,VWS V14.01,2013-02-21 08:25:00,
2013-02-21 03:30:00,26.4,15.9,29.79,WSW,246,8.0,8.0,64,0.00,,---,0.00,VWS V14.01,2013-02-21 08:30:00,
2013-02-21 03:35:00,26.3,15.8,29.79,West,275,4.0,8.0,64,0.00,,---,0.00,VWS V14.01,2013-02-21 08:35:00,
2013-02-21 03:40:00,26.3,15.8,29.79,SW,233,5.0,12.0,64,0.00,,---,0.00,VWS V14.01,2013-02-21 08:40:00,
2013-02-21 03:45:00,26.3,15.8,29.79,WSW,253,5.0,9.0,64,0.00,,---,0.00,VWS V14.01,2013-02-21 08:45:00,
2013-02-21 03:50:00,26.3,15.8,29.79,West,261,5.0,8.0,64,0.00,,---,0.00,VWS V14.01,2013-02-21 08:50:00,
2013-02-21 03:55:00,26.3,15.8,29.79,West,281,8.0,10.0,64,0.00,,---,0.00,VWS V14.01,2013-02-21 08:55:00,
2013-02-21 04:00:00,26.3,15.8,29.79,SW,226,8.0,14.0,64,0.00,,---,0.00,VWS V14.01,2013-02-21 09:00:00,
2013-02-21 04:05:00,26.3,15.8,29.80,WSW,254,5.0,12.0,64,0.00,,---,0.00,VWS V14.01,2013-02-21 09:05:00,
2013-02-21 04:10:00,26.4,15.9,29.80,WNW,287,2.0,11.0,64,0.00,,---,0.00,VWS V14.01,2013-02-21 09:10:00,
2013-02-21 04:15:00,26.4,15.9,29.80,WSW,258,5.0,13.0,64,0.00,,---,0.00,VWS V14.01,2013-02-21 09:15:00,
2013-02-21 04:20:00,26.4,15.9,29.80,WSW,240,2.0,12.0,64,0.00,,---,0.00,VWS V14.01,2013-02-21 09:20:00,
2013-02-21 04:25:00,26.4,15.9,29.80,NW,304,8.0,12.0,64,0.00,,---,0.00,VWS V14.01,2013-02-21 09:25:00,
2013-02-21 04:30:00,26.4,15.9,29.80,SW,215,6.0,13.0,64,0.00,,---,0.00,VWS V14.01,2013-02-21 09:30:00,
2013-02-21 04:35:00,26.4,15.9,29.80,WSW,251,12.0,13.0,64,0.00,,---,0.00,VWS V14.01,2013-02-21 09:35:00,
2013-02-21 04:40:00,26.4,15.9,29.80,SSW,206,2.0,8.0,64,0.00,,---,0.00,VWS V14.01,2013-02-21 09:40:00,
2013-02-21 04:45:00,26.4,15.9,29.80,SSW,213,2.0,7.0,64,0.00,,---,0.00,VWS V14.01,2013-02-21 09:45:00,
2013-02-21 04:50:00,26.3,15.8,29.80,West,260,4.0,8.0,64,0.00,,---,0.00,VWS V14.01,2013-02-21 09:50:00,
2013-02-21 04:55:00,26.3,16.1,29.80,West,261,2.0,5.0,65,0.00,,---,0.00,VWS V14.01,2013-02-21 09:55:00,
2013-02-21 05:00:00,26.1,16.0,29.80,SW,229,4.0,12.0,65,0.00,,---,0.00,VWS V14.01,2013-02-21 10:00:00,
2013-02-21 05:05:00,26.0,15.9,29.80,SW,219,6.0,11.0,65,0.00,,---,0.00,VWS V14.01,2013-02-21 10:05:00,
2013-02-21 05:10:00,26.0,15.9,29.80,South,186,6.0,13.0,65,0.00,,---,0.00,VWS V14.01,2013-02-21 10:10:00,
2013-02-21 05:15:00,25.8,15.7,29.80,WSW,251,7.0,11.0,65,0.00,,---,0.00,VWS V14.01,2013-02-21 10:15:00,
2013-02-21 05:20:00,25.7,15.6,29.80,WSW,257,10.0,13.0,65,0.00,,---,0.00,VWS V14.01,2013-02-21 10:20:00,
2013-02-21 05:25:00,25.7,15.6,29.80,West,271,7.0,15.0,65,0.00,,---,0.00,VWS V14.01,2013-02-21 10:25:00,
2013-02-21 05:30:00,25.6,15.8,29.80,WNW,291,17.0,17.0,66,0.00,,---,0.00,VWS V14.01,2013-02-21 10:30:00,
2013-02-21 05:35:00,25.6,15.8,29.80,SW,226,7.0,12.0,66,0.00,,---,0.00,VWS V14.01,2013-02-21 10:35:00,
2013-02-21 05:40:00,25.7,15.9,29.80,WSW,243,11.0,11.0,66,0.00,,---,0.00,VWS V14.01,2013-02-21 10:40:00,
2013-02-21 05:45:00,25.7,15.9,29.80,WSW,246,8.0,14.0,66,0.00,,---,0.00,VWS V14.01,2013-02-21 10:45:00,
2013-02-21 05:50:00,25.7,15.9,29.80,WNW,282,8.0,12.0,66,0.00,,---,0.00,VWS V14.01,2013-02-21 10:50:00,
2013-02-21 05:55:00,25.7,15.2,29.80,WSW,251,7.0,12.0,64,0.00,,---,0.00,VWS V14.01,2013-02-21 10:55:00,
2013-02-21 06:00:00,25.7,15.2,29.80,WSW,246,0.0,5.0,64,0.00,,---,0.00,VWS V14.01,2013-02-21 11:00:00,
2013-02-21 06:05:00,25.6,15.1,29.80,SW,234,0.0,10.0,64,0.00,,---,0.00,VWS V14.01,2013-02-21 11:05:00,
2013-02-21 06:10:00,25.6,15.1,29.80,WSW,240,3.0,6.0,64,0.00,,---,0.00,VWS V14.01,2013-02-21 11:10:00,
2013-02-21 06:15:00,25.6,15.5,29.80,West,264,8.0,10.0,65,0.00,,---,0.00,VWS V14.01,2013-02-21 11:15:00,
2013-02-21 06:20:00,25.4,14.9,29.81,WSW,241,5.0,15.0,64,0.00,,---,0.00,VWS V14.01,2013-02-21 11:20:00,
2013-02-21 06:25:00,25.4,14.9,29.81,West,274,13.0,14.0,64,0.00,,---,0.00,VWS V14.01,2013-02-21 11:25:00,
2013-02-21 06:30:00,25.6,15.1,29.81,WSW,243,3.0,8.0,64,0.00,,---,0.00,VWS V14.01,2013-02-21 11:30:00,
2013-02-21 06:35:00,25.6,15.1,29.81,West,281,7.0,14.0,64,0.00,,---,0.00,VWS V14.01,2013-02-21 11:35:00,
2013-02-21 06:40:00,25.6,15.1,29.81,West,272,2.0,11.0,64,0.00,,---,0.00,VWS V14.01,2013-02-21 11:40:00,
2013-02-21 06:45:00,25.6,14.8,29.81,West,260,5.0,11.0,63,0.00,,---,0.00,VWS V14.01,2013-02-21 11:45:00,
2013-02-21 06:50:00,25.6,14.4,29.81,WSW,253,6.0,21.0,62,0.00,,---,0.00,VWS V14.01,2013-02-21 11:50:00,
2013-02-21 06:55:00,25.7,14.5,29.81,WSW,256,19.0,19.0,62,0.00,,---,0.00,VWS V14.01,2013-02-21 11:55:00,
2013-02-21 07:00:00,25.7,14.1,29.81,WSW,239,7.0,16.0,61,0.00,,---,0.00,VWS V14.01,2013-02-21 12:00:00,
2013-02-21 07:05:00,25.7,14.1,29.82,WSW,253,6.0,19.0,61,0.00,,---,0.00,VWS V14.01,2013-02-21 12:05:00,
2013-02-21 07:10:00,25.7,14.1,29.82,SSW,212,1.0,11.0,61,0.00,,---,0.00,VWS V14.01,2013-02-21 12:10:00,
2013-02-21 07:24:00,25.7,14.1,29.82,West,270,8.0,21.0,61,0.00,,---,0.00,VWS V14.01,2013-02-21 12:24:00,
2013-02-21 07:29:00,25.7,14.1,29.82,West,264,8.0,14.0,61,0.00,,---,0.00,VWS V14.01,2013-02-21 12:29:00,
2013-02-21 07:34:00,25.7,14.1,29.82,WNW,285,7.0,19.0,61,0.00,,---,0.00,VWS V14.01,2013-02-21 12:34:00,
2013-02-21 07:45:00,25.8,14.6,29.82,WSW,251,6.0,6.0,62,0.00,,---,0.00,VWS V14.01,2013-02-21 12:45:00,
2013-02-21 07:50:00,25.8,13.9,29.82,WNW,302,6.0,20.0,60,0.00,,---,0.00,VWS V14.01,2013-02-21 12:50:00,
2013-02-21 07:55:00,25.8,13.9,29.82,WSW,246,9.0,13.0,60,0.00,,---,0.00,VWS V14.01,2013-02-21 12:55:00,
2013-02-21 08:00:00,25.8,13.9,29.81,West,277,6.0,16.0,60,0.00,,---,0.00,VWS V14.01,2013-02-21 13:00:00,
2013-02-21 08:05:00,26.0,13.6,29.81,SW,230,10.0,13.0,59,0.00,,---,0.00,VWS V14.01,2013-02-21 13:05:00,
2013-02-21 08:10:00,26.0,13.6,29.81,WNW,285,8.0,19.0,59,0.00,,---,0.00,VWS V14.01,2013-02-21 13:10:00,
2013-02-21 08:15:00,26.0,13.6,29.80,WSW,241,8.0,18.0,59,0.00,,---,0.00,VWS V14.01,2013-02-21 13:15:00,
2013-02-21 08:20:00,26.0,14.0,29.80,West,261,2.0,11.0,60,0.00,,---,0.00,VWS V14.01,2013-02-21 13:20:00,
2013-02-21 08:25:00,26.0,14.0,29.80,West,272,3.0,19.0,60,0.00,,---,0.00,VWS V14.01,2013-02-21 13:25:00,
2013-02-21 08:30:00,26.0,13.6,29.80,SW,234,8.0,16.0,59,0.00,,---,0.00,VWS V14.01,2013-02-21 13:30:00,
2013-02-21 08:35:00,26.0,14.0,29.80,West,263,7.0,16.0,60,0.00,,---,0.00,VWS V14.01,2013-02-21 13:35:00,
2013-02-21 08:40:00,26.1,13.8,29.80,West,272,6.0,22.0,59,0.00,,---,0.00,VWS V14.01,2013-02-21 13:40:00,
2013-02-21 08:45:00,26.1,13.8,29.81,WNW,301,6.0,18.0,59,0.00,,---,0.00,VWS V14.01,2013-02-21 13:45:00,
2013-02-21 08:50:00,26.3,13.6,29.81,WNW,302,12.0,15.0,58,0.00,,---,0.00,VWS V14.01,2013-02-21 13:50:00,
2013-02-21 08:55:00,26.3,13.6,29.81,SW,223,3.0,13.0,58,0.00,,---,0.00,VWS V14.01,2013-02-21 13:55:00,
2013-02-21 09:00:00,26.4,13.6,29.80,WNW,302,17.0,17.0,58,0.00,,---,0.00,VWS V14.01,2013-02-21 14:00:00,
2013-02-21 09:05:00,26.4,14.0,29.80,WNW,296,3.0,19.0,59,0.00,,---,0.00,VWS V14.01,2013-02-21 14:05:00,
2013-02-21 09:10:00,26.6,14.2,29.80,West,268,10.0,24.0,59,0.00,,---,0.00,VWS V14.01,2013-02-21 14:10:00,
2013-02-21 09:15:00,26.6,14.2,29.80,SW,215,8.0,13.0,59,0.00,,---,0.00,VWS V14.01,2013-02-21 14:15:00,
2013-02-21 09:20:00,26.7,13.9,29.80,NW,312,5.0,10.0,58,0.00,,---,0.00,VWS V14.01,2013-02-21 14:20:00,
2013-02-21 09:25:00,26.9,14.1,29.80,West,270,10.0,26.0,58,0.00,,---,0.00,VWS V14.01,2013-02-21 14:25:00,
2013-02-21 09:30:00,27.0,13.8,29.81,WSW,256,7.0,13.0,57,0.00,,---,0.00,VWS V14.01,2013-02-21 14:30:00,
2013-02-21 09:35:00,27.2,13.6,29.81,West,270,8.0,20.0,56,0.00,,---,0.00,VWS V14.01,2013-02-21 14:35:00,
2013-02-21 09:40:00,27.5,13.9,29.81,West,272,16.0,16.0,56,0.00,,---,0.00,VWS V14.01,2013-02-21 14:40:00,
2013-02-21 09:45:00,27.8,13.8,29.79,WSW,240,6.0,12.0,55,0.00,,---,0.00,VWS V14.01,2013-02-21 14:45:00,
2013-02-21 09:50:00,27.9,13.8,29.79,WNW,289,8.0,17.0,55,0.00,,---,0.00,VWS V14.01,2013-02-21 14:50:00,
2013-02-21 09:55:00,28.1,14.0,29.79,SW,222,8.0,19.0,55,0.00,,---,0.00,VWS V14.01,2013-02-21 14:55:00,
2013-02-21 10:00:00,28.1,13.6,29.80,WSW,244,5.0,16.0,54,0.00,,---,0.00,VWS V14.01,2013-02-21 15:00:00,
2013-02-21 10:05:00,28.4,14.3,29.80,SW,217,10.0,12.0,55,0.00,,---,0.00,VWS V14.01,2013-02-21 15:05:00,
2013-02-21 10:10:00,28.7,14.2,29.80,West,260,8.0,16.0,54,0.00,,---,0.00,VWS V14.01,2013-02-21 15:10:00,
2013-02-21 10:15:00,29.1,14.5,29.79,NW,308,6.0,10.0,54,0.00,,---,0.00,VWS V14.01,2013-02-21 15:15:00,
2013-02-21 10:20:00,29.4,14.8,29.79,West,274,6.0,13.0,54,0.00,,---,0.00,VWS V14.01,2013-02-21 15:20:00,
2013-02-21 10:25:00,29.7,14.2,29.79,WNW,299,16.0,16.0,52,0.00,,---,0.00,VWS V14.01,2013-02-21 15:25:00,
2013-02-21 10:30:00,29.8,14.3,29.79,SSW,213,8.0,17.0,52,0.00,,---,0.00,VWS V14.01,2013-02-21 15:30:00,
2013-02-21 10:35:00,30.1,14.6,29.79,SW,217,10.0,19.0,52,0.00,,---,0.00,VWS V14.01,2013-02-21 15:35:00,
2013-02-21 10:40:00,30.4,14.4,29.79,West,280,6.0,16.0,51,0.00,,---,0.00,VWS V14.01,2013-02-21 15:40:00,
2013-02-21 10:45:00,31.0,14.1,29.79,WNW,301,10.0,17.0,49,0.00,,---,0.00,VWS V14.01,2013-02-21 15:45:00,
2013-02-21 10:50:00,31.9,14.9,29.79,SW,234,10.0,20.0,49,0.00,,---,0.00,VWS V14.01,2013-02-21 15:50:00,
2013-02-21 10:55:00,32.4,15.4,29.79,West,270,11.0,12.0,49,0.00,,---,0.00,VWS V14.01,2013-02-21 15:55:00,
2013-02-21 11:00:00,32.9,15.9,29.79,WNW,301,10.0,19.0,49,0.00,,---,0.00,VWS V14.01,2013-02-21 16:00:00,
2013-02-21 11:05:00,33.1,16.0,29.79,West,277,7.0,13.0,49,0.00,,---,0.00,VWS V14.01,2013-02-21 16:05:00,
2013-02-21 11:10:00,33.2,15.2,29.79,WSW,253,10.0,17.0,47,0.00,,---,0.00,VWS V14.01,2013-02-21 16:10:00,
2013-02-21 11:15:00,33.1,14.6,29.79,North,354,6.0,17.0,46,0.00,,---,0.00,VWS V14.01,2013-02-21 16:15:00,
2013-02-21 11:20:00,32.9,14.4,29.79,WNW,291,7.0,14.0,46,0.00,,---,0.00,VWS V14.01,2013-02-21 16:20:00,
2013-02-21 11:25:00,32.8,15.3,29.79,NNW,343,9.0,21.0,48,0.00,,---,0.00,VWS V14.01,2013-02-21 16:25:00,
2013-02-21 11:30:00,32.7,14.7,29.79,SSW,210,10.0,19.0,47,0.00,,---,0.00,VWS V14.01,2013-02-21 16:30:00,
2013-02-21 11:35:00,32.9,15.4,29.79,WNW,285,8.0,20.0,48,0.00,,---,0.00,VWS V14.01,2013-02-21 16:35:00,
2013-02-21 11:40:00,33.2,15.6,29.79,WSW,244,7.0,13.0,48,0.00,,---,0.00,VWS V14.01,2013-02-21 16:40:00,
2013-02-21 11:45:00,33.8,15.7,29.78,WNW,298,14.0,14.0,47,0.00,,---,0.00,VWS V14.01,2013-02-21 16:45:00,
2013-02-21 11:50:00,34.3,15.7,29.78,NNW,346,12.0,13.0,46,0.00,,---,0.00,VWS V14.01,2013-02-21 16:50:00,
2013-02-21 11:55:00,33.8,14.7,29.78,NW,304,1.0,10.0,45,0.00,,---,0.00,VWS V14.01,2013-02-21 16:55:00,
2013-02-21 12:00:00,34.3,15.7,29.79,West,270,7.0,14.0,46,0.00,,---,0.00,VWS V14.01,2013-02-21 17:00:00,
2013-02-21 12:05:00,34.6,14.9,29.79,NW,325,6.0,17.0,44,0.00,,---,0.00,VWS V14.01,2013-02-21 17:05:00,
2013-02-21 12:10:00,34.6,15.5,29.79,NW,306,16.0,19.0,45,0.00,,---,0.00,VWS V14.01,2013-02-21 17:10:00,
2013-02-21 12:15:00,34.7,15.0,29.79,WSW,241,11.0,17.0,44,0.00,,---,0.00,VWS V14.01,2013-02-21 17:15:00,
2013-02-21 12:20:00,34.9,15.7,29.79,West,260,11.0,11.0,45,0.00,,---,0.00,VWS V14.01,2013-02-21 17:20:00,
2013-02-21 12:25:00,35.5,15.2,29.79,SW,234,15.0,17.0,43,0.00,,---,0.00,VWS V14.01,2013-02-21 17:25:00,
2013-02-21 12:30:00,35.5,15.2,29.78,NNW,329,5.0,18.0,43,0.00,,---,0.00,VWS V14.01,2013-02-21 17:30:00,
2013-02-21 12:35:00,35.5,16.3,29.78,WSW,247,7.0,12.0,45,0.00,,---,0.00,VWS V14.01,2013-02-21 17:35:00,
2013-02-21 12:40:00,35.3,15.1,29.78,WNW,289,11.0,22.0,43,0.00,,---,0.00,VWS V14.01,2013-02-21 17:40:00,
2013-02-21 12:45:00,34.6,15.5,29.78,NNW,344,3.0,19.0,45,0.00,,---,0.00,VWS V14.01,2013-02-21 17:45:00,
2013-02-21 12:50:00,34.1,15.0,29.78,SW,217,12.0,20.0,45,0.00,,---,0.00,VWS V14.01,2013-02-21 17:50:00,
2013-02-21 12:55:00,34.0,14.9,29.78,WNW,302,5.0,16.0,45,0.00,,---,0.00,VWS V14.01,2013-02-21 17:55:00,
2013-02-21 13:00:00,34.1,16.0,29.77,WSW,257,6.0,17.0,47,0.00,,---,0.00,VWS V14.01,2013-02-21 18:00:00,
2013-02-21 13:05:00,34.4,15.3,29.77,NW,312,6.0,13.0,45,0.00,,---,0.00,VWS V14.01,2013-02-21 18:05:00,
2013-02-21 13:10:00,34.3,15.2,29.77,NNW,337,3.0,19.0,45,0.00,,---,0.00,VWS V14.01,2013-02-21 18:10:00,
2013-02-21 13:15:00,34.4,15.3,29.77,WNW,291,19.0,19.0,45,0.00,,---,0.00,VWS V14.01,2013-02-21 18:15:00,
2013-02-21 13:20:00,34.1,15.0,29.77,WSW,251,8.0,16.0,45,0.00,,---,0.00,VWS V14.01,2013-02-21 18:20:00,
2013-02-21 13:25:00,34.1,14.5,29.77,NW,304,7.0,17.0,44,0.00,,---,0.00,VWS V14.01,2013-02-21 18:25:00,
2013-02-21 13:30:00,34.3,14.7,29.77,WNW,301,6.0,19.0,44,0.00,,---,0.00,VWS V14.01,2013-02-21 18:30:00,
2013-02-21 13:35:00,34.7,15.6,29.77,NNW,335,8.0,13.0,45,0.00,,---,0.00,VWS V14.01,2013-02-21 18:35:00,
2013-02-21 13:40:00,35.0,15.8,29.77,WSW,246,11.0,13.0,45,0.00,,---,0.00,VWS V14.01,2013-02-21 18:40:00,
2013-02-21 13:45:00,34.7,15.6,29.77,NW,309,6.0,18.0,45,0.00,,---,0.00,VWS V14.01,2013-02-21 18:45:00,
2013-02-21 13:50:00,34.4,15.3,29.77,NNW,332,7.0,22.0,45,0.00,,---,0.00,VWS V14.01,2013-02-21 18:50:00,
2013-02-21 13:55:00,34.1,15.0,29.77,West,272,7.0,16.0,45,0.00,,---,0.00,VWS V14.01,2013-02-21 18:55:00,
2013-02-21 14:00:00,34.1,15.0,29.77,NW,313,12.0,16.0,45,0.00,,---,0.00,VWS V14.01,2013-02-21 19:00:00,
2013-02-21 14:05:00,34.0,14.9,29.77,WNW,299,13.0,20.0,45,0.00,,---,0.00,VWS V14.01,2013-02-21 19:05:00,
2013-02-21 14:10:00,34.0,14.9,29.77,WNW,295,5.0,12.0,45,0.00,,---,0.00,VWS V14.01,2013-02-21 19:10:00,
2013-02-21 14:15:00,33.8,14.7,29.77,West,267,14.0,21.0,45,0.00,,---,0.00,VWS V14.01,2013-02-21 19:15:00,
2013-02-21 14:20:00,33.5,14.4,29.77,NW,308,8.0,17.0,45,0.00,,---,0.00,VWS V14.01,2013-02-21 19:20:00,
2013-02-21 14:25:00,33.4,15.4,29.77,North,0,6.0,13.0,47,0.00,,---,0.00,VWS V14.01,2013-02-21 19:25:00,
2013-02-21 14:30:00,33.4,15.4,29.78,North,357,8.0,13.0,47,0.00,,---,0.00,VWS V14.01,2013-02-21 19:30:00,
2013-02-21 14:35:00,33.4,15.4,29.78,SW,219,8.0,14.0,47,0.00,,---,0.00,VWS V14.01,2013-02-21 19:35:00,
2013-02-21 14:40:00,33.4,14.9,29.78,WSW,248,7.0,21.0,46,0.00,,---,0.00,VWS V14.01,2013-02-21 19:40:00,
2013-02-21 14:45:00,33.5,14.4,29.79,NNW,329,13.0,19.0,45,0.00,,---,0.00,VWS V14.01,2013-02-21 19:45:00,
2013-02-21 14:50:00,33.5,14.9,29.79,NW,311,4.0,18.0,46,0.00,,---,0.00,VWS V14.01,2013-02-21 19:50:00,
2013-02-21 14:55:00,33.4,14.9,29.79,West,261,5.0,13.0,46,0.00,,---,0.00,VWS V14.01,2013-02-21 19:55:00,
2013-02-21 15:00:00,33.2,14.7,29.79,NW,312,8.0,12.0,46,0.00,,---,0.00,VWS V14.01,2013-02-21 20:00:00,
2013-02-21 15:05:00,33.1,14.6,29.79,West,274,12.0,14.0,46,0.00,,---,0.00,VWS V14.01,2013-02-21 20:05:00,
2013-02-21 15:10:00,33.2,14.7,29.79,WNW,288,8.0,17.0,46,0.00,,---,0.00,VWS V14.01,2013-02-21 20:10:00,
2013-02-21 15:15:00,33.2,15.2,29.79,WNW,299,5.0,10.0,47,0.00,,---,0.00,VWS V14.01,2013-02-21 20:15:00,
2013-02-21 15:20:00,33.4,15.4,29.79,WNW,288,4.0,20.0,47,0.00,,---,0.00,VWS V14.01,2013-02-21 20:20:00,
2013-02-21 15:25:00,33.4,14.9,29.79,NW,311,11.0,12.0,46,0.00,,---,0.00,VWS V14.01,2013-02-21 20:25:00,
2013-02-21 15:30:00,33.7,15.6,29.80,NW,304,8.0,13.0,47,0.00,,---,0.00,VWS V14.01,2013-02-21 20:30:00,
2013-02-21 15:35:00,34.0,15.4,29.80,West,278,11.0,12.0,46,0.00,,---,0.00,VWS V14.01,2013-02-21 20:35:00,
2013-02-21 15:40:00,34.0,15.9,29.80,NNW,344,14.0,17.0,47,0.00,,---,0.00,VWS V14.01,2013-02-21 20:40:00,
2013-02-21 15:45:00,34.0,15.4,29.81,NW,316,5.0,14.0,46,0.00,,---,0.00,VWS V14.01,2013-02-21 20:45:00,
2013-02-21 15:50:00,33.8,14.7,29.81,NW,323,2.0,14.0,45,0.00,,---,0.00,VWS V14.01,2013-02-21 20:50:00,
2013-02-21 15:55:00,33.8,15.7,29.81,West,277,2.0,14.0,47,0.00,,---,0.00,VWS V14.01,2013-02-21 20:55:00,
2013-02-21 16:00:00,33.7,14.6,29.81,North,353,13.0,14.0,45,0.00,,---,0.00,VWS V14.01,2013-02-21 21:00:00,
2013-02-21 16:05:00,33.7,15.6,29.81,North,0,1.0,19.0,47,0.00,,---,0.00,VWS V14.01,2013-02-21 21:05:00,
2013-02-21 16:10:00,33.7,15.1,29.81,WNW,296,3.0,9.0,46,0.00,,---,0.00,VWS V14.01,2013-02-21 21:10:00,
2013-02-21 16:15:00,33.5,14.9,29.82,NNE,28,1.0,14.0,46,0.00,,---,0.00,VWS V14.01,2013-02-21 21:15:00,
2013-02-21 16:20:00,33.4,15.4,29.82,West,272,5.0,8.0,47,0.00,,---,0.00,VWS V14.01,2013-02-21 21:20:00,
2013-02-21 16:25:00,33.2,15.2,29.82,NW,308,5.0,10.0,47,0.00,,---,0.00,VWS V14.01,2013-02-21 21:25:00,
2013-02-21 16:30:00,33.1,15.1,29.83,NW,319,0.0,10.0,47,0.00,,---,0.00,VWS V14.01,2013-02-21 21:30:00,
2013-02-21 16:35:00,32.9,14.9,29.83,WSW,247,3.0,16.0,47,0.00,,---,0.00,VWS V14.01,2013-02-21 21:35:00,
2013-02-21 16:40:00,32.7,14.7,29.83,North,359,1.0,13.0,47,0.00,,---,0.00,VWS V14.01,2013-02-21 21:40:00,
2013-02-21 16:45:00,32.5,15.0,29.84,WNW,291,0.0,13.0,48,0.00,,---,0.00,VWS V14.01,2013-02-21 21:45:00,
2013-02-21 16:50:00,32.4,14.4,29.84,NW,311,2.0,16.0,47,0.00,,---,0.00,VWS V14.01,2013-02-21 21:50:00,
2013-02-21 16:55:00,32.1,14.6,29.84,WNW,301,7.0,12.0,48,0.00,,---,0.00,VWS V14.01,2013-02-21 21:55:00,
2013-02-21 17:00:00,31.9,14.4,29.86,WNW,302,4.0,12.0,48,0.00,,---,0.00,VWS V14.01,2013-02-21 22:00:00,
2013-02-21 17:05:00,31.8,14.4,29.86,WNW,289,6.0,12.0,48,0.00,,---,0.00,VWS V14.01,2013-02-21 22:05:00,
2013-02-21 17:10:00,31.5,14.6,29.86,WNW,282,7.0,10.0,49,0.00,,---,0.00,VWS V14.01,2013-02-21 22:10:00,
2013-02-21 17:15:00,31.3,14.8,29.87,NNW,344,7.0,11.0,50,0.00,,---,0.00,VWS V14.01,2013-02-21 22:15:00,
2013-02-21 17:20:00,31.2,14.7,29.87,West,270,10.0,16.0,50,0.00,,---,0.00,VWS V14.01,2013-02-21 22:20:00,
2013-02-21 17:25:00,31.0,14.6,29.87,NNW,337,7.0,12.0,50,0.00,,---,0.00,VWS V14.01,2013-02-21 22:25:00,
2013-02-21 17:30:00,30.9,14.9,29.89,North,349,6.0,20.0,51,0.00,,---,0.00,VWS V14.01,2013-02-21 22:30:00,
2013-02-21 17:35:00,30.7,14.7,29.89,NW,308,5.0,8.0,51,0.00,,---,0.00,VWS V14.01,2013-02-21 22:35:00,
2013-02-21 17:40:00,30.7,14.7,29.89,SW,234,4.0,14.0,51,0.00,,---,0.00,VWS V14.01,2013-02-21 22:40:00,
2013-02-21 17:45:00,30.6,14.6,29.90,NW,304,10.0,11.0,51,0.00,,---,0.00,VWS V14.01,2013-02-21 22:45:00,
2013-02-21 17:50:00,30.4,14.4,29.90,NNW,332,5.0,11.0,51,0.00,,---,0.00,VWS V14.01,2013-02-21 22:50:00,
2013-02-21 17:55:00,30.3,14.4,29.90,WSW,250,6.0,10.0,51,0.00,,---,0.00,VWS V14.01,2013-02-21 22:55:00,
2013-02-21 18:00:00,30.1,14.6,29.91,NNW,328,8.0,13.0,52,0.00,,---,0.00,VWS V14.01,2013-02-21 23:00:00,
2013-02-21 18:05:00,30.0,14.5,29.91,WNW,292,0.0,16.0,52,0.00,,---,0.00,VWS V14.01,2013-02-21 23:05:00,
2013-02-21 18:10:00,29.8,14.8,29.91,West,265,3.0,14.0,53,0.00,,---,0.00,VWS V14.01,2013-02-21 23:10:00,
2013-02-21 18:15:00,29.8,14.3,29.92,NW,318,7.0,13.0,52,0.00,,---,0.00,VWS V14.01,2013-02-21 23:15:00,
2013-02-21 18:20:00,29.7,14.2,29.92,NNW,337,8.0,14.0,52,0.00,,---,0.00,VWS V14.01,2013-02-21 23:20:00,
2013-02-21 18:25:00,29.5,14.1,29.92,NNW,328,4.0,13.0,52,0.00,,---,0.00,VWS V14.01,2013-02-21 23:25:00,
2013-02-21 18:30:00,29.4,14.4,29.93,WNW,291,10.0,14.0,53,0.00,,---,0.00,VWS V14.01,2013-02-21 23:30:00,
2013-02-21 18:35:00,29.3,14.3,29.93,NW,309,5.0,11.0,53,0.00,,---,0.00,VWS V14.01,2013-02-21 23:35:00,
2013-02-21 18:40:00,29.1,14.1,29.93,WNW,296,3.0,11.0,53,0.00,,---,0.00,VWS V14.01,2013-02-21 23:40:00,
2013-02-21 18:45:00,29.0,14.4,29.94,NNW,337,6.0,13.0,54,0.00,,---,0.00,VWS V14.01,2013-02-21 23:45:00,
2013-02-21 18:50:00,29.0,14.4,29.94,WNW,289,18.0,18.0,54,0.00,,---,0.00,VWS V14.01,2013-02-21 23:50:00,
2013-02-21 18:55:00,29.0,14.0,29.94,NW,313,6.0,12.0,53,0.00,,---,0.00,VWS V14.01,2013-02-21 23:55:00,
2013-02-21 19:00:00,28.8,14.3,29.95,WSW,256,3.0,11.0,54,0.00,,---,0.00,VWS V14.01,2013-02-22 00:00:00,
2013-02-21 19:05:00,28.7,14.2,29.95,NW,316,13.0,13.0,54,0.00,,---,0.00,VWS V14.01,2013-02-22 00:05:00,
2013-02-21 19:10:00,28.7,14.6,29.95,NNW,347,4.0,11.0,55,0.00,,---,0.00,VWS V14.01,2013-02-22 00:10:00,
2013-02-21 19:15:00,28.5,14.4,29.96,NNW,333,3.0,12.0,55,0.00,,---,0.00,VWS V14.01,2013-02-22 00:15:00,
2013-02-21 19:20:00,28.5,14.4,29.96,NE,51,2.0,9.0,55,0.00,,---,0.00,VWS V14.01,2013-02-22 00:20:00,
2013-02-21 19:25:00,28.5,14.4,29.96,NNW,333,2.0,14.0,55,0.00,,---,0.00,VWS V14.01,2013-02-22 00:25:00,
2013-02-21 19:30:00,28.5,14.4,29.97,NNW,329,2.0,14.0,55,0.00,,---,0.00,VWS V14.01,2013-02-22 00:30:00,
2013-02-21 19:35:00,28.5,14.4,29.97,WNW,298,6.0,17.0,55,0.00,,---,0.00,VWS V14.01,2013-02-22 00:35:00,
2013-02-21 19:40:00,28.5,14.4,29.97,North,350,5.0,12.0,55,0.00,,---,0.00,VWS V14.01,2013-02-22 00:40:00,
2013-02-21 19:45:00,28.4,14.7,29.98,WNW,299,2.0,11.0,56,0.00,,---,0.00,VWS V14.01,2013-02-22 00:45:00,
2013-02-21 19:50:00,28.2,14.5,29.98,NW,306,2.0,12.0,56,0.00,,---,0.00,VWS V14.01,2013-02-22 00:50:00,
2013-02-21 19:55:00,28.2,14.5,29.98,WNW,294,1.0,7.0,56,0.00,,---,0.00,VWS V14.01,2013-02-22 00:55:00,
2013-02-21 20:00:00,28.1,14.8,29.98,NW,304,1.0,10.0,57,0.00,,---,0.00,VWS V14.01,2013-02-22 01:00:00,
2013-02-21 20:05:00,28.1,14.8,29.98,WNW,295,6.0,12.0,57,0.00,,---,0.00,VWS V14.01,2013-02-22 01:05:00,
2013-02-21 20:10:00,27.9,14.6,29.98,North,356,10.0,12.0,57,0.00,,---,0.00,VWS V14.01,2013-02-22 01:10:00,
2013-02-21 20:15:00,27.9,14.6,30.00,West,264,3.0,9.0,57,0.00,,---,0.00,VWS V14.01,2013-02-22 01:15:00,
2013-02-21 20:20:00,27.8,14.6,30.00,WNW,285,1.0,9.0,57,0.00,,---,0.00,VWS V14.01,2013-02-22 01:20:00,
2013-02-21 20:25:00,27.8,15.0,30.00,North,359,2.0,11.0,58,0.00,,---,0.00,VWS V14.01,2013-02-22 01:25:00,
2013-02-21 20:30:00,27.8,15.0,30.01,WNW,296,7.0,10.0,58,0.00,,---,0.00,VWS V14.01,2013-02-22 01:30:00,
2013-02-21 20:35:00,27.6,15.2,30.01,North,354,11.0,11.0,59,0.00,,---,0.00,VWS V14.01,2013-02-22 01:35:00,
2013-02-21 20:40:00,27.6,15.2,30.01,WNW,298,1.0,10.0,59,0.00,,---,0.00,VWS V14.01,2013-02-22 01:40:00,
2013-02-21 20:45:00,27.6,15.2,30.02,NW,320,6.0,6.0,59,0.00,,---,0.00,VWS V14.01,2013-02-22 01:45:00,
2013-02-21 20:50:00,27.5,15.1,30.02,NNW,339,5.0,7.0,59,0.00,,---,0.00,VWS V14.01,2013-02-22 01:50:00,
2013-02-21 20:55:00,27.5,15.1,30.02,North,0,2.0,6.0,59,0.00,,---,0.00,VWS V14.01,2013-02-22 01:55:00,
2013-02-21 21:00:00,27.3,15.3,30.03,NW,318,7.0,8.0,60,0.00,,---,0.00,VWS V14.01,2013-02-22 02:00:00,
2013-02-21 21:05:00,27.3,14.9,30.03,NNW,344,6.0,11.0,59,0.00,,---,0.00,VWS V14.01,2013-02-22 02:05:00,
2013-02-21 21:10:00,27.3,15.3,30.03,North,356,2.0,11.0,60,0.00,,---,0.00,VWS V14.01,2013-02-22 02:10:00,
2013-02-21 21:15:00,27.3,15.3,30.04,WNW,298,3.0,13.0,60,0.00,,---,0.00,VWS V14.01,2013-02-22 02:15:00,
2013-02-21 21:20:00,27.3,15.3,30.04,NNW,332,10.0,16.0,60,0.00,,---,0.00,VWS V14.01,2013-02-22 02:20:00,
2013-02-21 21:25:00,27.2,15.2,30.04,NNW,329,5.0,8.0,60,0.00,,---,0.00,VWS V14.01,2013-02-22 02:25:00,
2013-02-21 21:30:00,27.2,15.6,30.05,NW,318,10.0,10.0,61,0.00,,---,0.00,VWS V14.01,2013-02-22 02:30:00,
2013-02-21 21:35:00,27.2,15.6,30.05,NNW,339,6.0,6.0,61,0.00,,---,0.00,VWS V14.01,2013-02-22 02:35:00,
2013-02-21 21:40:00,27.0,15.4,30.05,North,349,3.0,11.0,61,0.00,,---,0.00,VWS V14.01,2013-02-22 02:40:00,
2013-02-21 21:45:00,27.0,15.7,30.05,NNW,333,3.0,6.0,62,0.00,,---,0.00,VWS V14.01,2013-02-22 02:45:00,
2013-02-21 21:50:00,27.0,15.7,30.05,North,359,0.0,10.0,62,0.00,,---,0.00,VWS V14.01,2013-02-22 02:50:00,
2013-02-21 21:55:00,26.9,15.6,30.05,NNW,340,5.0,6.0,62,0.00,,---,0.00,VWS V14.01,2013-02-22 02:55:00,
2013-02-21 22:00:00,26.9,16.0,30.06,NW,309,1.0,6.0,63,0.00,,---,0.00,VWS V14.01,2013-02-22 03:00:00,
2013-02-21 22:05:00,26.9,16.0,30.06,NW,304,3.0,6.0,63,0.00,,---,0.00,VWS V14.01,2013-02-22 03:05:00,
2013-02-21 22:10:00,26.7,15.8,30.06,NNW,336,0.0,6.0,63,0.00,,---,0.00,VWS V14.01,2013-02-22 03:10:00,
2013-02-21 22:15:00,26.7,15.8,30.06,NNW,339,0.0,6.0,63,0.00,,---,0.00,VWS V14.01,2013-02-22 03:15:00,
2013-02-21 22:20:00,26.6,16.1,30.06,NW,311,0.0,7.0,64,0.00,,---,0.00,VWS V14.01,2013-02-22 03:20:00,
2013-02-21 22:25:00,26.6,16.1,30.06,North,349,2.0,7.0,64,0.00,,---,0.00,VWS V14.01,2013-02-22 03:25:00,
2013-02-21 22:30:00,26.6,16.1,30.07,WNW,284,2.0,10.0,64,0.00,,---,0.00,VWS V14.01,2013-02-22 03:30:00,
2013-02-21 22:35:00,26.4,15.9,30.07,West,270,7.0,7.0,64,0.00,,---,0.00,VWS V14.01,2013-02-22 03:35:00,
2013-02-21 22:40:00,26.4,15.9,30.07,NNW,336,6.0,12.0,64,0.00,,---,0.00,VWS V14.01,2013-02-22 03:40:00,
2013-02-21 22:45:00,26.4,16.2,30.08,NNW,328,4.0,7.0,65,0.00,,---,0.00,VWS V14.01,2013-02-22 03:45:00,
2013-02-21 22:50:00,26.4,16.2,30.08,NNW,328,2.0,12.0,65,0.00,,---,0.00,VWS V14.01,2013-02-22 03:50:00,
2013-02-21 22:55:00,26.4,16.2,30.08,West,264,2.0,8.0,65,0.00,,---,0.00,VWS V14.01,2013-02-22 03:55:00,
2013-02-21 23:00:00,26.4,16.2,30.08,NW,318,6.0,6.0,65,0.00,,---,0.00,VWS V14.01,2013-02-22 04:00:00,
2013-02-21 23:05:00,26.3,16.5,30.08,WNW,289,5.0,8.0,66,0.00,,---,0.00,VWS V14.01,2013-02-22 04:05:00,
2013-02-21 23:10:00,26.3,16.5,30.08,WNW,298,3.0,12.0,66,0.00,,---,0.00,VWS V14.01,2013-02-22 04:10:00,
2013-02-21 23:15:00,26.3,16.5,30.09,WNW,289,3.0,14.0,66,0.00,,---,0.00,VWS V14.01,2013-02-22 04:15:00,
2013-02-21 23:20:00,26.3,16.5,30.09,NW,313,1.0,7.0,66,0.00,,---,0.00,VWS V14.01,2013-02-22 04:20:00,
2013-02-21 23:25:00,26.3,16.5,30.09,WNW,299,6.0,10.0,66,0.00,,---,0.00,VWS V14.01,2013-02-22 04:25:00,
2013-02-21 23:30:00,26.3,16.5,30.11,NW,313,3.0,9.0,66,0.00,,---,0.00,VWS V14.01,2013-02-22 04:30:00,
2013-02-21 23:35:00,26.3,16.9,30.11,NW,318,8.0,8.0,67,0.00,,---,0.00,VWS V14.01,2013-02-22 04:35:00,
2013-02-21 23:40:00,26.4,16.6,30.11,NW,304,0.0,10.0,66,0.00,,---,0.00,VWS V14.01,2013-02-22 04:40:00,
2013-02-21 23:45:00,26.4,16.9,30.11,WNW,296,6.0,8.0,67,0.00,,---,0.00,VWS V14.01,2013-02-22 04:45:00,
2013-02-21 23:50:00,26.6,17.1,30.11,NW,319,5.0,6.0,67,0.00,,---,0.00,VWS V14.01,2013-02-22 04:50:00,
2013-02-21 23:55:00,26.6,17.1,30.11,NW,315,5.0,6.0,67,0.00,,---,0.00,VWS V14.01,2013-02-22 04:55:00,